STARLINK-34358, 64313

Orbit data source: Space-Track

STARLINK-34358, 64313 is a payload satellite owned by SpaceX/Seattle (US) in LEO that was launched on Sun, 08 Jun 2025 UTC via an FALCON 9 launch vehicle from the Air Force Western Test Range (AFWTR). Payload-class satellites include a variety of spacecraft equipped with specific instruments for various scientific and technological missions. These include communications satellites like Starlink; space stations such as the ISS; scientific satellites like the Hubble; Earth observation satellites from companies like Planet Labs, Umbra, and HawkEye 360; GPS; miniature CubeSats for education and research; and military/defense satellites.

Loading next visibility...
Identifier
64313, 2025-123Y
Orbit
LEO
Country
Flag of USUS
Related business
Manufacturer
SpaceX/Seattle
Mission
Operational Commercial Communications
Bus & Motor
STARLINK V2MO, Unknown motor
Mass
575 kg wet, ~530 kg dry
Launch date (UTC)
2025-06-08 (10 months ago)
Launch vehicle
FALCON 9
Launch site
Air Force Western Test Range (AFWTR)
Object type
Payload
Rocket body
Debris
Shape & HBR
Box + 2 Pan, 17.7 m
Radar Cross Section
36.964 m², Large (>1 m²)

Expand to show TLE details & history
Last TLE update: 18 hours ago

TLE from 18 hours ago
0 STARLINK-34358
1 64313U 25123Y   26093.49324553  .00010484  00000-0  88364-3 0  9994
2 64313  70.0007 131.9283 0003722 261.1062  98.9676 14.98393137 45330
Epoch: 2026-04-03T11:50Z
TLE epoch observation values (Epoch: 2026-04-03T11:50:16.413Z)
Latitude
-0.00003°
Longitude
122.53332°
Altitude
574.689 km
Speed
7.574 km/s
True Right ascension
08h 47m 42s
True Declination
0° 00' 00"
Sunlit
Object was in full shadow at epoch
Visualization orbit readout
Latitude
Unknown
Longitude
Unknown
Altitude
Unknown
Speed
Unknown
Apparent Right ascension
Unknown
Apparent Declination
Unknown
Sunlit
N/A
Visualization observer readout
Local Sidereal Time
11:23:26
Azimuth
Unknown
Elevation
Unknown
Doppler factor
Unknown
Orbital elements
Apogee altitude
572.395 km
Perigee altitude
567.223 km
Semi-major axis
6,947.946 km
Eccentricity
0.00037
Inclination
70.0007°
RAAN
131.9283°
Arg. of periapsis
261.1062°
True anomaly
99.00973°
Mean anomaly
98.9676°
Eccentric anomaly
98.98866°
Mean motion
3.74765 °/min
Orbital period
96.06 mins
BSTAR
0.00088364
Loading maneuver chart data...
Computing Atmospheric mass density...
Loading historical data...
Loading historical data...
Loading historical data...
Loading historical data...
Loading historical data...
Loading historical data...
Loading historical data...

Documentation

Showing up to 5 results
|